[[{"header":{"parameterUnit":"m.s-1","parameterCategory":1,"la1":30.2991,"la2":30.254,"lo1":-89.0895,"lo2":-89.0444,"dy":0.0017,"dx":0.0017,"nx":28,"ny":28,"refTime":"2025-11-05T09:00:00:Z","depth":0,"parameterNumber":2,"parameterNumberName":"U-component_of_WINDS"},"data":[0,0,0,0,0,0,0,0,0,0,0,0,0,0,0,0,0,0,0,0,0,0,0,0,0,0,0,0,0,0,0,0,0,0,0,0,0,0,0,0,0,0,0,0,0,0,0,0,0,0,0,0,0,0,0,0,0,0,-4.6219,-4.6222,0,-4.6478,-4.6481,-4.6484,-4.6563,-4.6561,-4.656,-4.6559,-4.6815,-4.6823,-4.6831,0,0,0,0,0,0,0,0,0,0,0,0,0,-4.5786,-4.5794,-4.6219,-4.6222,-4.6226,-4.6477,-4.6481,-4.6484,-4.6563,-4.6561,-4.656,-4.6558,-4.6813,-4.6822,-4.6832,0,0,0,0,0,0,0,0,0,0,0,0,0,-4.6002,-4.5796,-4.6218,-4.6295,-4.6305,-4.6477,-4.6481,-4.6485,-4.6563,-4.6561,-4.6559,-4.6558,-4.6809,-4.6821,-4.6833,-4.6945,0,0,-4.6869,-4.6875,0,0,0,0,0,0,0,0,-4.599,-4.6018,-4.6281,-4.629,-4.6301,-4.6486,-4.6422,-4.6639,-4.6564,-4.6465,-4.6559,-4.6557,-4.6707,-4.6727,-4.6779,-4.6957,-4.6968,-4.6871,-4.6878,-4.6883,-4.6886,0,0,0,0,0,0,0,-4.5975,-4.6007,-4.6321,-4.6284,-4.6297,-4.6314,-4.6343,-4.6464,-4.6593,-4.6473,-4.648,-4.651,-4.6712,-4.6768,-4.6786,-4.6971,-4.687,-4.6881,-4.6888,-4.6893,-4.7253,-4.7255,0,0,0,0,0,0,-4.5948,-4.5994,-4.6313,-4.6329,-4.6138,-4.6324,-4.6356,-4.6429,-4.6592,-4.6615,-4.6511,-4.6512,-4.6748,-4.6772,-4.6795,-4.6936,-4.6883,-4.6894,-4.6901,-4.725,-4.7253,-4.7256,0,0,0,0,0,0,-4.5938,-4.5975,-4.6303,-4.6164,-4.6207,-4.6333,-4.6414,-4.6435,-4.6491,-4.662,-4.6643,-4.6545,-4.6748,-4.6778,-4.6907,-4.6946,-4.69,-4.691,-4.7247,-4.7251,-4.7254,-4.7219,0,0,0,0,0,0,-4.5925,-4.5972,-4.6017,-4.6164,-4.6214,-4.6412,-4.6417,-4.6441,-4.6512,-4.6516,-4.6658,-4.668,-4.6748,-4.6889,-4.6919,-4.6962,-4.692,-4.7244,-4.7249,-4.7253,-4.7217,-4.722,-4.7224,0,0,0,0,0,-4.591,-4.5995,-4.6019,-4.6057,-4.6273,-4.6414,-4.6443,-4.6522,-4.6515,-4.656,-4.6644,-4.6675,-4.6938,-4.6902,-4.6936,-4.6983,-4.7242,-4.7248,-4.7253,-4.7215,-4.722,-4.7224,0,0,0,0,0,0,-4.5845,-4.6015,-4.6044,-4.6179,-4.6282,-4.6428,-4.6487,-4.6525,-4.6629,-4.6629,-4.6721,-4.6752,-4.6874,-4.6942,-4.6899,-4.7099,-4.7091,-4.7103,-4.705,-4.7056,-4.7059,-4.7039,-4.693,0,0,0,0,0,-4.5847,-4.595,-4.6092,-4.6198,-4.6249,-4.6359,-4.6423,-4.6477,-4.6585,-4.6628,-4.6721,-4.6824,-4.6929,-4.6997,-4.7101,-4.7228,-4.7259,-4.7277,-4.728,-4.7283,-4.7291,-4.7362,-4.7372,-4.7273,-4.7273,-4.7273,0,0,-4.5851,-4.5957,-4.6016,-4.6188,-4.6274,-4.6376,-4.6395,-4.6502,-4.6578,-4.6644,-4.6772,-4.6844,-4.6964,-4.7092,-4.7153,-4.7152,-4.7326,-4.7289,-4.729,-4.7298,-4.7369,-4.7378,-4.7386,-4.7277,-4.7276,-4.7275,0,0,-4.5911,-4.6003,-4.6101,-4.6187,-4.6318,-4.6392,-4.6415,-4.6556,-4.6607,-4.6738,-4.6789,-4.688,-4.706,-4.7144,-4.7209,-4.7303,-4.7335,-4.7334,-4.735,-4.7419,-4.7426,-4.7434,-4.7465,-4.7476,-4.7343,-4.7343,-4.7343,0,-4.5899,-4.6058,-4.6145,-4.6251,-4.6324,-4.6393,-4.6491,-4.657,-4.6727,-4.6775,-4.6773,-4.7001,-4.7087,-4.7235,-4.7258,-4.731,-4.7338,-4.7317,-4.7419,-4.7427,-4.7435,-4.7466,-4.7478,-4.7342,-4.7342,-4.7342,-4.7342,0,-4.6035,-4.6144,-4.6207,-4.6361,-4.6441,-4.6542,-4.6644,-4.6715,-4.6761,-4.6834,-4.6965,-4.7071,-4.7198,-4.7238,-4.7283,-4.7393,-4.7388,-4.7401,-4.7394,-4.7442,-4.7472,-4.7485,-4.734,-4.7341,-4.7341,-4.7341,0,0,-4.6059,-4.6262,-4.6283,-4.6353,-4.6504,-4.6588,-4.6692,-4.682,-4.6878,-4.6984,-4.7072,-4.7224,-4.7238,-4.7313,-4.7368,-4.7428,-4.7494,-4.7435,-4.7439,-4.744,-4.7619,-4.7607,-4.7619,-4.7517,-4.752,-4.7522,-4.7609,0,-4.6136,-4.6327,-4.641,-4.6562,-4.6663,-4.673,-4.682,-4.6921,-4.6992,-4.7086,-4.7164,-4.727,-4.7281,-4.7326,-4.739,-4.7472,-4.753,-4.7468,-4.7597,-4.76,-4.7562,-4.7636,-4.7623,-4.7699,-4.7621,-4.7623,-4.7625,0,-4.6251,-4.6361,-4.6524,-4.6663,-4.6708,-4.6788,-4.6912,-4.7002,-4.7117,-4.7164,-4.7249,-4.7302,-4.7412,-4.74,-4.755,-4.7506,-4.7564,-4.7613,-4.7618,-4.763,-4.7613,-4.7648,-4.7725,-4.7736,-4.7645,-4.7643,-4.7642,0,-4.6249,-4.6438,-4.656,-4.6619,-4.6784,-4.6839,-4.691,-4.7024,-4.7095,-4.7202,-4.7249,-4.7366,-4.743,-4.7518,-4.7601,-4.7585,-4.7743,-4.7738,-4.7783,-4.7781,-4.7811,-4.7808,-4.7897,-4.7853,-4.7852,-4.7852,-4.7852,0,-4.6326,-4.6422,-4.6562,-4.6636,-4.6746,-4.684,-4.6945,-4.7021,-4.7122,-4.721,-4.7276,-4.7357,-4.7463,-4.7557,-4.7622,-4.7736,-4.7765,-4.7804,-4.782,-4.7797,-4.7792,-4.7834,-4.783,-4.7855,-4.7855,-4.7854,-4.7853,0,-4.6341,-4.6439,-4.6576,-4.6723,-4.6762,-4.6836,-4.6961,-4.7034,-4.711,-4.7221,-4.7253,-4.737,-4.7484,-4.7577,-4.7726,-4.777,-4.7888,-4.7907,-4.785,-4.7858,-4.7897,-4.7891,-4.8014,-4.8034,-4.7978,-4.7978,-4.7979,0,-4.6382,-4.6458,-4.6614,-4.668,-4.6751,-4.6856,-4.693,-4.7025,-4.7099,-4.7237,-4.7293,-4.7413,-4.7514,-4.7693,-4.779,-4.7904,-4.7925,-4.796,-4.7942,-4.7917,-4.7923,-4.7917,-4.7924,-4.7961,-4.7961,-4.7961,-4.7961,0,-4.6444,-4.6489,-4.6595,-4.6718,-4.6805,-4.6905,-4.7007,-4.7056,-4.717,-4.7249,-4.7369,-4.7447,-4.7601,-4.7718,-4.7843,-4.7914,-4.7956,-4.7967,-4.7983,-4.7959,-4.7922,-4.7941,-4.7853,-4.7963,-4.7963,-4.7963,-4.7962,-4.7962,-4.6473,-4.6543,-4.6664,-4.678,-4.6867,-4.6961,-4.7038,-4.7124,-4.7227,-4.7361,-4.7411,-4.7533,-4.7646,-4.7818,-4.789,-4.7985,-4.7989,-4.8012,-4.8018,-4.8022,-4.8018,-4.7909,-4.8008,-4.8008,-4.8008,-4.8009,-4.8009,0,-4.6536,-4.6618,-4.6723,-4.6865,-4.6956,-4.6992,-4.7106,-4.7178,-4.7286,-4.739,-4.7489,-4.7625,-4.774,-4.7847,-4.7966,-4.8022,-4.8044,-4.8049,-4.8045,-4.806,-4.8009,-4.7982,-4.803,-4.8029,-4.8029,-4.8029,-4.8029,-4.8029,-4.6579,-4.6701,-4.6761,-4.6926,-4.7007,-4.7129,-4.7191,-4.7278,-4.7361,-4.7512,-4.7608,-4.7679,-4.7783,-4.7911,-4.8017,-4.8045,-4.8085,-4.8085,-4.8118,-4.8067,-4.8064,-4.8061,-4.8036,-4.8094,-4.8094,-4.8162,-4.8162,-4.8162]},{"header":{"parameterUnit":"m.s-1","parameterCategory":1,"la1":30.2991,"la2":30.254,"lo1":-89.0895,"lo2":-89.0444,"dy":0.0017,"dx":0.0017,"nx":28,"ny":28,"refTime":"2025-11-05T09:00:00:Z","depth":0,"parameterNumber":3,"parameterNumberName":"V-component_of_WINDS"},"data":[0,0,0,0,0,0,0,0,0,0,0,0,0,0,0,0,0,0,0,0,0,0,0,0,0,0,0,0,0,0,0,0,0,0,0,0,0,0,0,0,0,0,0,0,0,0,0,0,0,0,0,0,0,0,0,0,0,0,4.7394,4.7396,0,4.7623,4.7625,4.7628,4.7643,4.764,4.7638,4.7635,4.7862,4.787,4.7878,0,0,0,0,0,0,0,0,0,0,0,0,0,4.6961,4.6969,4.7394,4.7396,4.7399,4.7622,4.7625,4.7628,4.7643,4.764,4.7637,4.7634,4.7859,4.7869,4.7879,0,0,0,0,0,0,0,0,0,0,0,0,0,4.7165,4.6972,4.7393,4.7434,4.744,4.7622,4.7626,4.7629,4.7644,4.764,4.7636,4.7633,4.7856,4.7868,4.788,4.8035,0,0,4.7919,4.7924,0,0,0,0,0,0,0,0,4.7154,4.7181,4.7425,4.7431,4.7438,4.76,4.7556,4.7765,4.7645,4.7566,4.7635,4.7631,4.7777,4.7796,4.7847,4.8045,4.8055,4.792,4.7928,4.7933,4.7937,0,0,0,0,0,0,0,4.7139,4.7171,4.7484,4.7428,4.7437,4.7438,4.7463,4.7596,4.769,4.7573,4.7574,4.7602,4.778,4.7835,4.7853,4.8059,4.792,4.7931,4.7939,4.7944,4.8395,4.8399,0,0,0,0,0,0,4.7119,4.7159,4.7477,4.7491,4.7284,4.7449,4.7477,4.7552,4.7689,4.7706,4.7605,4.7601,4.7815,4.7838,4.7861,4.8051,4.7933,4.7945,4.7952,4.839,4.8396,4.84,0,0,0,0,0,0,4.7109,4.7147,4.7467,4.7326,4.7367,4.746,4.7545,4.7559,4.7614,4.7713,4.7729,4.7644,4.7813,4.7843,4.7992,4.8059,4.795,4.7962,4.8385,4.8392,4.8398,4.8433,0,0,0,0,0,0,4.7097,4.7143,4.7205,4.7327,4.7374,4.7598,4.7549,4.7566,4.7636,4.7634,4.7754,4.777,4.7812,4.7973,4.8005,4.8074,4.7972,4.8379,4.8388,4.8396,4.8426,4.844,4.8451,0,0,0,0,0,4.7081,4.7204,4.7208,4.7246,4.7454,4.7601,4.7628,4.7676,4.7642,4.7703,4.7767,4.7766,4.8046,4.7988,4.8024,4.8098,4.8375,4.8386,4.8395,4.842,4.8437,4.8451,0,0,0,0,0,0,4.7084,4.7221,4.7227,4.7393,4.7486,4.7604,4.7683,4.7692,4.7795,4.7789,4.7842,4.7868,4.8016,4.8072,4.8005,4.8255,4.8207,4.8224,4.8213,4.823,4.8243,4.8226,4.7982,0,0,0,0,0,4.7105,4.7216,4.7328,4.7463,4.751,4.7589,4.7655,4.7684,4.7781,4.782,4.7894,4.7986,4.8095,4.8166,4.8271,4.8434,4.846,4.8502,4.8515,4.8525,4.854,4.8629,4.865,4.8433,4.8433,4.8433,0,0,4.7147,4.7235,4.7302,4.7466,4.7542,4.7654,4.7621,4.7741,4.7823,4.7837,4.7984,4.8041,4.8147,4.8304,4.8376,4.8355,4.8605,4.8538,4.8545,4.8554,4.8642,4.8662,4.868,4.844,4.8439,4.8437,0,0,4.7282,4.736,4.7483,4.7559,4.7675,4.7726,4.7755,4.7872,4.7912,4.806,4.8073,4.817,4.8357,4.8432,4.8495,4.8658,4.8661,4.8691,4.8757,4.8844,4.8861,4.8877,4.8935,4.8955,4.8705,4.8705,4.8705,0,4.732,4.7492,4.7543,4.7664,4.7735,4.7755,4.7878,4.7948,4.8091,4.8139,4.8113,4.8348,4.8421,4.8595,4.8635,4.8685,4.8719,4.8677,4.8855,4.8871,4.8886,4.8942,4.8964,4.8708,4.8707,4.8707,4.8707,0,4.7532,4.765,4.7735,4.7876,4.7956,4.8077,4.8144,4.8219,4.8241,4.8294,4.8444,4.8532,4.8656,4.87,4.8721,4.8877,4.8861,4.8844,4.8797,4.8909,4.8962,4.8984,4.8712,4.8711,4.871,4.8709,0,0,4.7675,4.7844,4.7874,4.7939,4.8067,4.8159,4.8279,4.8403,4.8466,4.8563,4.8665,4.8822,4.8809,4.8879,4.8909,4.8986,4.911,4.896,4.8963,4.8985,4.9287,4.9299,4.9323,4.9112,4.9117,4.912,4.9278,0,4.7825,4.8044,4.8094,4.8281,4.839,4.841,4.8515,4.8604,4.8657,4.8755,4.8812,4.8923,4.8896,4.8939,4.9016,4.9078,4.9171,4.9068,4.9206,4.921,4.918,4.9351,4.9364,4.9509,4.9299,4.9303,4.9306,0,4.8029,4.8135,4.8333,4.8448,4.8496,4.859,4.8707,4.8802,4.8902,4.8935,4.9015,4.9037,4.9161,4.9107,4.9278,4.9206,4.9266,4.9305,4.9311,4.9326,4.9265,4.9371,4.9557,4.9579,4.9339,4.9336,4.9334,0,4.8115,4.8305,4.8449,4.8503,4.8641,4.8706,4.8766,4.8863,4.8934,4.9036,4.9082,4.9196,4.9258,4.9344,4.9396,4.9352,4.9562,4.9513,4.9592,4.959,4.9635,4.9632,4.9834,4.9673,4.9672,4.9672,4.9671,0,4.8277,4.8397,4.849,4.8578,4.8713,4.8768,4.89,4.8959,4.9045,4.9143,4.9166,4.9257,4.932,4.9419,4.946,4.9595,4.9622,4.9651,4.966,4.965,4.9646,4.969,4.9681,4.9678,4.9676,4.9675,4.9674,0,4.8395,4.8462,4.862,4.8738,4.8771,4.8865,4.8964,4.905,4.9103,4.9227,4.9259,4.9342,4.946,4.952,4.9666,4.9694,4.9846,4.9849,4.9813,4.9817,4.9893,4.9885,5.013,5.0165,4.998,4.9982,4.9983,0,4.8495,4.8589,4.8717,4.8787,4.8849,4.8959,4.9033,4.9089,4.9164,4.9286,4.9356,4.9477,4.9576,4.9763,4.9835,4.9947,4.9953,5.0031,4.997,4.9956,4.9954,4.9949,4.9958,5.0042,5.0043,5.0045,5.0046,0,4.8665,4.8693,4.88,4.8919,4.9007,4.9102,4.9196,4.925,4.9321,4.9404,4.9527,4.9604,4.9755,4.9874,4.9991,5.0049,5.006,5.0065,5.0089,5.0079,5.0055,5.007,4.9844,5.0059,5.0058,5.0057,5.0056,5.0055,4.8777,4.8862,4.8966,4.9084,4.9161,4.9248,4.9335,4.94,4.9504,4.9633,4.9659,4.9789,4.9886,5.0045,5.0107,5.0208,5.0191,5.0226,5.0235,5.0243,5.0247,5.0039,5.0229,5.0229,5.0229,5.0229,5.0229,0,4.8949,4.9017,4.9125,4.9257,4.935,4.9353,4.9457,4.9533,4.9649,4.9739,4.9837,4.9978,5.0093,5.0174,5.029,5.0355,5.0363,5.0384,5.038,5.0393,5.0256,5.0223,5.0376,5.0376,5.0376,5.0376,5.0376,5.0376,4.9049,4.9193,4.9233,4.9414,4.9481,4.9611,4.967,4.975,4.9823,4.998,5.0077,5.0129,5.0216,5.0339,5.0444,5.0465,5.0506,5.0528,5.0548,5.0418,5.0403,5.0388,5.0358,5.0536,5.0537,5.0678,5.0679,5.068]}]]